Location: Elende
(51.4317°N, 10.6316°E)
Time: 03:43:36
(UTC+00:00)

CENTAUR R/B - Pass Details

Date: 18 September 2020
Orbit: 755 x 1433 km, 63.4° (Epoch: 02 October)

Event Time Altitude Azimuth Distance (km) Brightness Sun altitude
Rises 21:13:58 0° 313° (NW) 4,189 6.9 -31.6°
Reaches altitude 10° 21:16:59 10° 304° (NW) 3,307 6.0 -31.9°
Maximum altitude 21:23:52 31° 247° (WSW) 2,222 4.3 -32.5°
Enters shadow 21:25:43 29° 225° (SW) 2,346 4.3 -32.6°
